AirNav   ATP
 
 413 users online  

42V Jones Airport
Benkelman, Nebraska, USA

GOING TO BENKELMAN?


FAA INFORMATION EFFECTIVE 06 DECEMBER 2018

Location

FAA Identifier: 42V
Lat/Long: 40-03-28.9800N / 101-32-48.6010W
40-03.483000N / 101-32.810017W
40.0580500 / -101.5468336
(estimated)
Elevation: 3126 ft. / 953 m (estimated)
Variation: 09E (1985)
From city: 1 mile NW of BENKELMAN, NE
Time zone: UTC -7 (UTC -6 during Daylight Saving Time)
Zip code: 69021

Airport Operations

Airport use: Open to the public
Activation date: 11/1954
Control tower: no
ARTCC: DENVER CENTER
FSS: COLUMBUS FLIGHT SERVICE STATION
NOTAMs facility: OLU (NOTAM-D service available)
Attendance: DAYLIGHT HOURS
Wind indicator: yes
Segmented circle: no

Airport Communications

CTAF: 122.9

Nearby radio navigation aids

VOR radial/distance  VOR name  Freq  Var
HCTr219/37.1HAYES CENTER VORTAC117.7011E

 
NDB name  Hdg/Dist  Freq  Var  ID
ST FRANCIS021/22.238606ESYF ... -.-- ..-.

Airport Services

Parking: tiedowns
Airframe service: NONE
Powerplant service: NONE
Bottled oxygen: NONE
Bulk oxygen: NONE

Runway Information

Runway 15/33

Dimensions: 3500 x 25 ft. / 1067 x 8 m
Surface: concrete
RUNWAY 15  RUNWAY 33
Gradient: 0.4%0.4%
Traffic pattern: leftleft
Displaced threshold: no1000 ft.
Obstructions: 17 ft. road, 550 ft. from runway, 32:1 slope to clearnone
+16 FT ROAD 105 FT FM EOR L/R.

Airport Ownership and Management from official FAA records

Ownership: Privately-owned
Owner: STAN JONES
BOX 685
BENKELMAN, NE 69021
Phone 308-423-2941
Manager: STAN JONES
BOX 685
BENKELMAN, NE 69021
Phone 308-423-2941
ALTN NR 308-883-0047

Airport Operational Statistics

Aircraft based on the field: 6
Single engine airplanes: 5
Multi engine airplanes: 1
    
Aircraft operations: avg 63/week *
91% local general aviation
9% transient general aviation
* for 12-month period ending 09 October 1996

Additional Remarks

NEW CROSSWIND RY UNDER CONSTRUCTION WEST OF RY 15/33.

Instrument Procedures

There are no published instrument procedures at 42V.

Some nearby airports with instrument procedures:

KSYF - Cheyenne County Municipal Airport (21 nm SW)
KADT - Atwood-Rawlins County City-County Airport (27 nm SE)
KIML - Imperial Municipal Airport (27 nm N)
2V5 - Wray Municipal Airport (32 nm W)
KGLD - Renner Field (Goodland Municipal Airport) (42 nm S)
 
Loc | Ops | Rwys | IFR | FBO | Links
Com | Nav | Svcs | Stats | Notes

Silverhawk Aviation, Inc.
AirBoss

 
Area around 42V (Jones Airport)
 
Road maps at: MapQuest Bing Google
 
Aerial photo
WARNING: Photo may not be current or correct
Aerial photo of 42V (Jones Airport)
Do you have a better or more recent aerial photo of Jones Airport that you would like to share? If so, please send us your photo.

 
Sectional chart

 
Airport distance calculator
Flying to Jones Airport? Find the distance to fly.

From to 42V

Sunrise and sunset
Times for 11-Dec-2018
 Local
(UTC-7)
 Zulu
(UTC)
Morning civil twilight06:2913:29
Sunrise06:5913:59
Sunset16:2023:20
Evening civil twilight16:5023:50

Current date and time
Zulu (UTC)  12-Dec-2018 06:54:21
Local (UTC-7)  11-Dec-2018 23:54:21
 
METAR
KSYF 
21nm SW 
120635Z AUTO 24006KT 10SM CLR M07/M08 A2995 RMK AO2 T10661077
KIML 
28nm N 
120553Z AUTO 24008KT 10SM CLR M04/M07 A2994 RMK AO2 SLP158 T10391067 10006 21039 56008 $
K2V5 
32nm W 
120635Z AUTO 26005KT 10SM CLR M04/M07 A2994 RMK AO2
KGLD 
42nm S 
120553Z AUTO 24008KT 10SM CLR M05/M08 A2996 RMK AO2 SLPNO T10501078 10017 21067 56011 $
TAF
KGLD 
42nm S 
120520Z 1206/1306 25006KT P6SM SKC FM121500 22011KT P6SM SKC FM130300 35030G45KT P6SM BKN050 TEMPO 1304/1306 BKN022
KMCK 
45nm E 
120520Z 1206/1306 25006KT P6SM SKC FM120900 24011KT P6SM SKC FM121800 23006KT P6SM SKC FM130400 35020G30KT P6SM SCT050
NOTAMs
Click for the latest NOTAMs
NOTAMs are issued by the DoD/FAA and will open in a separate window not controlled by AirNav.

 

 
 

Would you like to see your business listed on this page?

 If your business provides an interesting product or service to pilots, flight crews, aircraft, or users of the Jones Airport, you should consider listing it here.  To start the listing process, click on the button below
 
Add a business
 

Other Pages about Jones Airport

Update a link
 
Copyright © AirNav, LLC. All rights reserved. Privacy Policy  Contact